COSMOS 2539

Last updated on Mon Jun 22 2026 00:03:06 GMT+0000 (Coordinated Universal Time)

1 44457U 19048A 26171.89345437 .00000078 00000+0 00000+0 0 9999 2 44457 0.0385 91.7737 0000452 16.4031 134.5612 1.00275171 25263
UTC large
Height (km)
Speed (km/s)
/
Latitude / Longitude
Inclination (degrees)
Orbital Period (minutes)
Azimuth
Elevation
Range (km)
Doppler Factor

Next 0 passes for location: London (51.5072 / 0.1276)

No passes found over London.
COSMOS 2539